Regional Weather Roundup
Issued by NWS

Home | Current Version | Previous Version | Text Only | Print | Product List | Glossary Off
Versions: 1 2 3 4 5 6 7 8 9 10 11 12 13 14 15 16 17 18 19 20 21 22 23 24 25 26 27 28

000
ASUS45 KGTF 270210
RWRMT
MONTANA HOURLY WEATHER ROUNDUP
NATIONAL WEATHER SERVICE GREAT FALLS MT
800 PM MDT SUN APR 26 2015

NOTE: "FAIR" INDICATES FEW OR NO CLOUDS BELOW 12000 FEET WITH NO
SIGNIFICANT WEATHER AND/OR OBSTRUCTIONS TO VISIBILITY.

MTZ001>007-043-270300-
WEST OF THE DIVIDE

CITY           SKY/WX    TMP DP  RH WIND       PRES   REMARKS
KALISPELL      MOCLDY    48  38  68 SE8       30.18R
MISSOULA       CLOUDY    44  37  76 E6        30.23R
BUTTE          MOCLDY    39  27  62 NW7       30.18R
DEER LODGE       N/A     37  30  75 N3        30.24R
EUREKA           N/A     55  30  38 CALM      30.16S
HAMILTON         N/A     45  37  76 S5        30.22R
LIBBY            N/A     55  25  30 CALM      30.17S
$$

MTZ008-052>055-270300-
SOUTHWEST MONTANA

CITY           SKY/WX    TMP DP  RH WIND       PRES   REMARKS
BOZEMAN        CLOUDY    39  35  86 SW9       30.19R
DILLON         LGT RAIN  39  33  79 W5        30.16R
$$

MTZ009-010-012-014-046-048-049-054-270300-
EAST SLOPES AND CENTRAL MONTANA

CITY           SKY/WX    TMP DP  RH WIND       PRES   REMARKS
CUT BANK       CLEAR     44  27  51 S12       30.16R
GREAT FALLS    CLOUDY    40  31  70 SW5       30.20S
MALMSTROM AFB  MOCLDY    42  32  69 SW8       30.21S
HELENA         CLOUDY    42  32  67 CALM      30.21R
$$

MTZ011-013-016-021-045-047-050-051-270300-
NORTH CENTRAL MONTANA

CITY           SKY/WX    TMP DP  RH WIND       PRES   REMARKS
HAVRE          MOCLDY    43  30  60 CALM      30.22S
LEWISTOWN      CLOUDY    36  33  89 CALM      30.21S
CHINOOK          N/A     43  28  56 CALM      30.23S
FORT BENTON      N/A     45  28  53 SE3       30.23R
$$

MTZ017>020-022>042-056>058-061-062-270300-
EASTERN PLAINS

CITY           SKY/WX    TMP DP  RH WIND       PRES   REMARKS
BAKER          LGT RAIN  42  40  92 N6        30.15R
BILLINGS       CLOUDY    37  35  92 NE9       30.22R WCI  30
GLASGOW        CLOUDY    42  33  70 NW7       30.22R
JORDAN           N/A     39  34  82 NW9       30.22R
LIVINGSTON     CLOUDY    38  34  85 E15       30.17R WCI  29
MILES CITY     LGT RAIN  38  36  92 N9        30.20R WCI  31
SIDNEY         CLOUDY    48  37  66 NW3       30.18R
WOLF POINT     CLOUDY    46  35  65 NW12G21   30.21R
BIG TIMBER       N/A     36  34  93 SE3       30.21R
FORSYTH          N/A     37  37 100 N7        30.23R
PLENTYWOOD       N/A     45  34  65 NW9       30.19R
POPLAR           N/A     46  36  66 NW8       30.20R
$$

REGIONAL REPORTS...DAKOTAS

CITY           SKY/WX    TMP DP  RH WIND       PRES   REMARKS
WILLISTON      CLOUDY    51  34  52 NW6       30.16R
MINOT          LGT RAIN  48  45  89 SW7       30.13S
DICKINSON      CLOUDY    43  41  93 N5        30.13R
BEACH          LGT RAIN  41  41 100 CALM      30.16R
CROSBY         FAIR      46  39  76 N8        30.17R
WATFORD CITY   LGT RAIN  46  45  93 W5        30.14S
BISMARCK       MOCLDY    52  48  86 NW8       30.12R
GRAND FORKS    PTCLDY    58  25  28 CALM      30.11R
FARGO          PTCLDY    59  23  25 CALM      30.11R
BUFFALO SD       N/A     46  46 100 NE15      30.04R
RAPID CITY     CLOUDY    49  44  83 CALM      30.08R
$$

REGIONAL REPORTS...WYOMING/IDAHO/WASHINGTON

CITY           SKY/WX    TMP DP  RH WIND       PRES   REMARKS
GILLETTE       CLOUDY    37  36  96 N16       30.12R FOG     WCI  28
SHERIDAN       CLOUDY    39  35  86 N10       30.17R
BUFFALO WY     CLOUDY    38  36  92 N14       30.13R WCI  30
CODY           CLOUDY    36  32  87 N16       30.15R WCI  26
YELLOWSTONE LA   N/A     34  31  88 CALM      30.12R
IDAHO FALLS    CLOUDY    47  38  71 NE7       30.10R
SALMON         CLOUDY    46  30  53 N8        30.17R
BOISE          PTCLDY    58  20  22 NW15      30.13S
SPOKANE        MOCLDY    55  26  32 W6        30.20S
$$

REGIONAL REPORTS...ALBERTA

CITY           SKY/WX    TMP DP  RH WIND       PRES   REMARKS
EDMONTON       CLEAR     45  25  45 S8        30.09F
LETHBRIDGE     PTCLDY    48  32  53 SE8       30.13S
MEDICINE HAT   CLOUDY    48  32  53 S3        30.19S
$$

REGIONAL REPORTS...SASKATCHEWAN

CITY           SKY/WX    TMP DP  RH WIND       PRES   REMARKS
SWIFT CURRENT  MOCLDY    43  34  70 NE2       30.17R
REGINA         CLOUDY    39  34  81 W8        30.20R
SASKATOON      MOCLDY    37  32  81 SE3       30.20R
$$



USA.gov is the U.S. government's official web portal to all federal, state and local government web resources and services.